Location: Unspecified
(42.3650°N, 71.1030°W)
Time: 16:14:01
(UTC+00:00)

Vanguard 3 - Pass Details

Date: 02 July 2024
Orbit: 508 x 3230 km, 33.4° (Epoch: 16 July)

Event Time Altitude Azimuth Distance (km) Brightness Sun altitude
Exits shadow 07:11:38 - 181° (S) 6,402 11.2 -16.8°
Reaches altitude 10° 07:13:45 10° 176° (S) 6,149 11.2 -16.6°
Maximum altitude 07:25:01 19° 140° (SE) 5,254 11.1 -15.3°
Drops below altitude 10° 07:35:05 10° 104° (ESE) 5,474 11.7 -14.2°
Sets 07:40:39 0° 88° (E) 6,067 12.3 -13.5°
